Regional Weather Roundup
Issued by NWS

Home | Current Version | Previous Version | Text Only | Print | Product List | Glossary On
Versions: 1 2 3 4 5 6 7 8 9 10 11 12 13 14 15 16 17 18 19 20 21 22 23 24 25 26 27 28 29 30 31 32 33 34 35 36 37 38 39 40 41 42 43 44 45 46 47 48 49 50
000
ASUS44 KJAN 230210
RWRMS

MISSISSIPPI HOURLY WEATHER ROUNDUP
NATIONAL WEATHER SERVICE JACKSON MS
900 PM CDT TUE AUG 22 2017

NOTE: "FAIR: INDICATES FEW OR NO CLOUDS BELOW 12,000 FEET WITH NO
SIGNIFICANT WEATHER AND/OR OBSTRUCTIONS TO VISIBILITY.

MSZ001>002-007>008-010>013-018>021-025>028-034>036-230300-
NORTHWEST MISSISSIPPI

CITY           SKY/WX    TMP DP  RH WIND       PRES   REMARKS
BATESVILLE     TSTM      74  70  87 W12G23    30.03R
CLARKSDALE       N/A     84  79  84 N5        29.98R HX  96
CLEVELAND      MOCLDY    83  76  78 SW5       29.97R HX  92
GREENWOOD      PTCLDY    80  77  90 CALM      29.97R
GREENVILLE     PTCLDY    83  73  72 W6        29.97R
OXFORD         TSTM      72  68  88 SW7G33    30.03R VSB 3/4
TUNICA           N/A     79  73  83 N6        30.00R
WINONA         FAIR      77  77 100 CALM      29.98R
$$

MSZ003>006-009-014>017-022>024-029>033-037>039-230300-
NORTHEAST MISSISSIPPI

CITY           SKY/WX    TMP DP  RH WIND       PRES   REMARKS
COLUMBUS AFB   CLEAR     79  77  95 CALM      29.98R
GOLDN TRIANGLE CLEAR     81  70  69 CALM        N/A
STARKVILLE     FAIR      77  73  88 CALM      30.00R
TUPELO         CLEAR     83  72  69 S6        29.98R
$$

MSZ040-058-230300-
CENTRAL MISSISSIPPI

CITY           SKY/WX    TMP DP  RH WIND       PRES   REMARKS
JACKSON INTL   CLEAR     82  74  76 S5        29.97F
JACKSON HAWKNS CLEAR     82  75  79 S5        29.98F
MADISON        FAIR      79  72  78 CALM      29.97F
MERIDIAN KEY   CLEAR     81  77  88 S7        29.98S
MERIDIAN NAS   CLEAR     80  75  84 CALM      29.98R
RAYMOND        FAIR      79  77  94 CALM      29.96F
VICKSBURG VKS  CLEAR     81  77  89 CALM      29.94F
$$

MSZ059>079-230300-
SOUTH MISSISSIPPI

CITY           SKY/WX    TMP DP  RH WIND       PRES   REMARKS
COLUMBIA       FAIR      79 N/A N/A CALM      30.02F
HATTIESBURG    PTCLDY    82  78  88 S6        30.00S HX  91
LAUREL         FAIR      81  80  97 S6        29.99F HX  93
MCCOMB         PTCLDY    78  75  90 CALM      30.01F
NATCHEZ        PTCLDY    78  74  87 S8        29.99S
PINE BELT      CLOUDY    80  77  90 S5        30.00F
$$

MSZ080>082-230300-
COASTAL MISSISSIPPI

CITY           SKY/WX    TMP DP  RH WIND       PRES   REMARKS
BILOXI         PTCLDY    82  76  81 CALM      29.99F
PASCAGOULA     PTCLDY    76  74  93 CALM      30.00S
GULFPORT       PTCLDY    79  76  90 CALM      29.99S
$$

LAZ007>009-015>016-023>026-230300-
NORTHEAST LOUISIANA

CITY           SKY/WX    TMP DP  RH WIND       PRES   REMARKS
BASTROP        FAIR      80  74  83 SW3       29.99R
TALLULAH/VBURG CLEAR     81  74  79 CALM      29.95F
VIDALIA          N/A    N/A N/A N/A MISG      29.97F
$$



USA.gov is the U.S. government's official web portal to all federal, state and local government web resources and services.